Location: East Horndon
(51.5667°N, 0.3500°E)
Time: 03:05:15
(UTC+00:00)

BlueWalker 3 - Pass Details

Date: 08 November 2025
Orbit: 454 x 462 km, 53.2° (Epoch: 15 December)

Event Time Altitude Azimuth Distance (km) Brightness Sun altitude
Exits shadow 04:01:18 17° 122° (ESE) 1,240 4.4 -28.6°
Drops below altitude 10° 04:02:13 10° 120° (ESE) 1,604 5.1 -28.4°
Enters shadow 05:00:36 -64° 309° (NW) 11,989 8.9 -19.4°
